Weather in Emva

Russia / Komi Republic     62°35′54″N   50°53′11″E
temp.,
°C
wind,
m/s
gust,
m/s
humid.,
%
clouds,
%
prec.,
mm/h
press.,
hPa
HPBL,
m
15 april, thu
thu1500:00+8nnw71089100 0.7 1014714
03:00+1wnw2897100 6.2 1018309
06:00+3nw497670 0.3 1020956
09:00+4nw4756100 0.3 10211075
12:00+5nw484599 0.0 10231523
15:00+6nw584260 0.0 10242107
18:00+4nw38535 0.0 1025524
21:00+1nw28735 0.0 1028198
16 april, fri
fri1600:00−1nw12855 0.0 103056
03:00−2w12865 0.0 103149
06:000wsw24718 0.0 1031189
09:00+4w454657 0.0 1031975
12:00+6w5848100 0.0 10301729
15:00+7wnw495593 0.0 10291691
18:00+5nw486787 0.1 1029607
21:00+2nw258645 0.1 1029145
17 april, sat
sat1700:00+1nw2598100 0.1 1030274
03:00+1nw3883100 0.1 1030687
06:00+1nw3681100 0.0 1030787
09:00+3wnw477164 0.0 1029719
12:00+7wnw51056100 0.0 10271575
15:00+8wnw6125566 0.0 10251814
18:00+7wnw613598 0.0 10231508
21:00+6nw61469100 0.1 10231385
18 april, sun
sun1800:00+1n5117264 0.9 1026963
03:00−2n49665 0.9 1029981
06:00−2nne58605 0.0 10321105
09:000nne46435 0.0 10341330
12:00+2nne45342 0.0 10351608
15:00+3nne34315 0.0 10361809
18:00+1ne34395 0.0 1037886
21:00−1ene25563 0.0 1038146
19 april, mon
mon1900:00−2e13550 0.0 1039100
03:00−2ese00515 0.0 103934
06:000wsw11445 0.0 1040334
09:00+2wnw22325 0.0 10391196
12:00+5wnw232897 0.0 10381452
15:00+5wnw232996 0.0 10371449
18:00+4wnw11395 0.0 103610
21:00+1wsw11505 0.0 103610